Regional Weather Roundup
Issued by NWS

Home | Current Version | Previous Version | Text Only | Print | Product List | Glossary Off
Versions: 1 2 3 4 5 6 7 8 9 10 11 12 13 14 15 16 17 18 19 20 21 22 23 24 25 26 27 28 29 30 31 32 33 34 35 36 37 38 39 40 41 42 43 44 45 46 47 48 49 50

384
ASUS43 KIND 011109
RWRIN

WEATHER ROUNDUP FOR INDIANA
NATIONAL WEATHER SERVICE INDIANAPOLIS IN
700 AM EDT SAT OCT 01 2016

NOTE: "FAIR" INDICATES FEW OR NO CLOUDS BELOW 12,000 FEET WITH NO
SIGNIFICANT WEATHER AND/OR OBSTRUCTIONS TO VISIBILITY.

* - STATION DOES NOT REPORT WEATHER SUCH AS PRECIPITATION OR FOG.

+ - STATION NOT QUALITY CONTROLLED BY THE NATIONAL WEATHER SERVICE.
    USE DATA WITH CAUTION...ESPECIALLY DEWPOINT AND RELATIVE
    HUMIDITY OBSERVATIONS.

INZ001>003-010>013-019-020-011200-
NORTHWEST INDIANA

CITY           SKY/WX    TMP DP  RH WIND       PRES   REMARKS
GARY /AIRPORT/ LGT RAIN  63  61  94 N3        30.01F
KNOX *+        CLOUDY    57  50  77 CALM      29.99F
LA PORTE +     TSTM     N/A N/A N/A N3        30.01S
MICHIGAN CITY+ HVY RAIN  57  57 100 CALM      30.00F VSB 1
MONTICELLO +   CLOUDY    57  53  88 CALM      29.99R
RENSSELAER +   CLOUDY    57  57 100 CALM      30.00S FOG
VALPARAISO     LGT RAIN  59  57  93 N3        30.00F

$$

LMZ046-743>745-011200-
SOUTHERN LAKE MICHIGAN

STATION/POSITION TIME  TEMP    WIND        PRES    WAVE
                       AIR SEA DIR/SP/G            HT
                 (UTC) (F)     (DEG/KT/KT) (MB)    (FT)
BURNS HARBOR     1040   62      50/ 10/ 13 1016.3F
MICHIGAN CITY    1040   61      10/ 12/ 14   N/A
5NW MICH CITY    1100   62 64   30/ 10/ 14   N/A     3

$$

INZ004-005-014>016-021>024-011200-
NORTH CENTRAL INDIANA

CITY           SKY/WX    TMP DP  RH WIND       PRES   REMARKS
GOSHEN         CLOUDY    60  57  89 E8        29.99S
LOGANSPORT +   LGT RAIN  55  55 100 CALM      30.01R
PERU/GRISSOM   CLOUDY    58  58 100 S5        29.98S
ROCHESTER +    RAIN      61  61 100 CALM      30.00S
SOUTH BEND     RAIN      57  56  96 NE7       30.01S FOG
WARSAW +       CLOUDY    57  55  94 CALM      29.99S

$$

INZ006>009-017-018-025>027-011200-
NORTHEAST INDIANA

CITY           SKY/WX    TMP DP  RH WIND       PRES   REMARKS
ANGOLA *+        N/A     57  48  72 E5        30.00F
AUBURN +       CLOUDY    59  57  94 CALM      30.01S FOG
FORT WAYNE     CLOUDY    58  57  97 S9        30.01R FOG
HUNTINGTON +   CLOUDY    58  57  96 S6        30.00R FOG
KENDALLVILLE + CLOUDY    59  59 100 E3        30.00S FOG

$$

INZ028-029-035-036-043>045-051>053-011200-
WEST CENTRAL INDIANA

CITY           SKY/WX    TMP DP  RH WIND       PRES   REMARKS
CRAWFORDSVL +  PTCLDY    51  51 100 S3        29.99S FOG
GREENCASTLE +  PTCLDY    50  50 100 CALM      30.01S FOG
LAFAYETTE      CLOUDY    57  57 100 CALM      29.99R
TERRE HAUTE    CLOUDY    55  54  96 S5        30.00R FOG

$$

INZ030>032-037>040-046>048-054>057-064-065-011200-
CENTRAL INDIANA

CITY           SKY/WX    TMP DP  RH WIND       PRES   REMARKS
COLUMBUS       PTCLDY    50  50 100 SE6       30.02
FISHERS *+     CLOUDY    50  50 100 S3        30.01R
FRANKFORT +    CLOUDY    55  55  97 SE3       30.02R FOG
GREENWOOD *+   PTCLDY    52  52 100 CALM      30.02R
INDIANAPOLIS   PTCLDY    52  51  97 CALM      30.00R
-EAGLE CREEK   PTCLDY    53  51  93 SE3       30.00S FOG
KOKOMO *+      CLOUDY    57  55  94 S5        30.01S
MARION +       CLOUDY    55  54  99 CALM      30.01S FOG
MT COMFORT *+  CLOUDY    50  50 100 SE5       30.01S
SHELBYVILLE    MOCLDY    53  50  89 CALM      30.01R
ZIONSVILLE +   CLOUDY    54  54  99 SE3       30.01R FOG

$$

INZ033-034-041-042-049-050-058-059-011200-
EAST CENTRAL INDIANA

CITY           SKY/WX    TMP DP  RH WIND       PRES   REMARKS
MUNCIE         CLOUDY    56  53  90 S3        30.01S

$$

INZ060-061-067>069-081>083-085>088-011200-
SOUTHWEST INDIANA

CITY           SKY/WX    TMP DP  RH WIND       PRES   REMARKS
EVANSVILLE     FOG       59  57  93 CALM      30.01R VSB 1/4
HUNTINGBURG *+   N/A     55  54  94 S3        30.01S VSB 1/2
WASHINGTON +   CLOUDY    53  53 100 SE5       30.00S

$$

INZ062-063-066-070>080-084-089>092-011200-
SOUTH CENTRAL AND SOUTHEAST INDIANA

CITY           SKY/WX    TMP DP  RH WIND       PRES   REMARKS
BLOOMINGTON    FOG       51  50  96 CALM      30.01R VSB 1/2
MADISON *+     CLOUDY    54  52  94 CALM      30.04S
SEYMOUR +      FOG       54  52  94 CALM      30.01F VSB 1/2

$$





USA.gov is the U.S. government's official web portal to all federal, state and local government web resources and services.